AirNav   Air Wisconsin pilot careers
 
 308 users online  

30MA Clinton Hospital Heliport
Clinton, Massachusetts, USA

GOING TO CLINTON?


FAA INFORMATION EFFECTIVE 12 OCTOBER 2017

Location

FAA Identifier: 30MA
Lat/Long: 42-25-40.6200N / 071-41-34.0800W
42-25.677000N / 071-41.568000W
42.4279500 / -71.6928000
(estimated)
Elevation: 368 ft. / 112 m (estimated)
Variation: 15W (1995)
From city: 1 mile NW of CLINTON, MA
Time zone: UTC -4 (UTC -5 during Standard Time)
Zip code: 01510

Heliport Operations

Heliport use: Private use, MEDICAL USE.
Activation date: 08/1998
Control tower: no
ARTCC: BOSTON CENTER
FSS: BRIDGEPORT FLIGHT SERVICE STATION
Attendance: UNATNDD
Wind indicator: yes
Segmented circle: no
Lights: FOR PERIMETER LGTS CALL 978-368-3735.

Heliport Communications

WX ASOS at FIT (8 nm N): 135.175 (978-343-9121)
WX ASOS at ORH (13 nm SW): PHONE 508-795-7546
WX ASOS at BED (18 nm E): PHONE 781-274-9733

Nearby radio navigation aids

VOR radial/distance  VOR name  Freq  Var
GDMr128/17.6GARDNER VOR/DME110.6014W
PUTr027/29.1PUTNAM VOR/DME117.4014W
MHTr223/30.0MANCHESTER VOR/DME114.4015W
BOSr294/31.4BOSTON VOR/DME112.7016W
LWMr250/32.4LAWRENCE VOR/DME112.5015W
EENr144/34.4KEENE VORTAC109.4014W
CEFr084/39.5WESTOVER VORTAC114.0014W

 
NDB name  Hdg/Dist  Freq  Var  ID
FITCHBURG174/7.936515WFIT ..-. .. -
BEDDS273/13.833216WBE -... .
SHAKER HILL282/22.825116WSKR ... -.- .-.

Heliport Services

Runway Information

Helipad H1

Dimensions: 45 x 45 ft. / 14 x 14 m
Surface: asphalt
Runway edge lights: PERI
Latitude: 42-25.666667N
Longitude: 071-41.568000W
Traffic pattern: leftleft

Heliport Ownership and Management from official FAA records

Ownership: Privately-owned
Owner: CLINTON HOSPITAL
201 HIGHLAND STREET
CLINTON, MA 01510
Phone 978-368-3000
Manager: ROBERT KNIHTILA
201 HIGHLAND STREET
CLINTON, MA 01510
Phone 978-368-3735
CELL: 508-688-5125

Heliport Operational Statistics

Aircraft based on the field: 3
Helicopters: 3
    

Instrument Procedures

There are no published instrument procedures at 30MA.

Some nearby airports with instrument procedures:

6B6 - Minute Man Air Field (8 nm E)
KFIT - Fitchburg Municipal Airport (8 nm N)
KORH - Worcester Regional Airport (13 nm SW)
KGDM - Gardner Municipal Airport (16 nm NW)
KBED - Laurence G Hanscom Field Airport (18 nm E)
 
Loc | Ops | Rwys | IFR | FBO | Links
Com | Nav | Svcs | Stats | Notes


 
Area around 30MA (Clinton Hospital Heliport)
 
Road maps at: MapQuest Bing Google
 
Aerial photo
No photo
 
Sectional chart

 
Airport distance calculator
Flying to Clinton Hospital Heliport? Find the distance to fly.

From to 30MA

Sunrise and sunset
Times for 22-Oct-2017
 Local
(UTC-4)
 Zulu
(UTC)
Morning civil twilight06:4010:40
Sunrise07:0911:09
Sunset17:5421:54
Evening civil twilight18:2222:22

Current date and time
Zulu (UTC)  22-Oct-2017 08:41:24
Local (UTC-4)  22-Oct-2017 04:41:24
 
METAR
KFIT 
8nm N 
220752Z AUTO 00000KT 10SM CLR 10/08 A3035 RMK AO2 SLP278 T01000083
KORH 
12nm SW 
220754Z AUTO 29008KT 10SM CLR 14/04 A3035 RMK AO2 SLP278 T01440039 $
KBED 
18nm E 
220756Z AUTO 00000KT 10SM CLR 08/06 A3033 RMK AO2 SLP283 T00830061
TAF
KORH 
12nm SW 
220540Z 2206/2306 26008KT P6SM SKC FM221300 34004KT P6SM FEW200 FM221600 03006KT P6SM SCT250 FM221900 17004KT P6SM FEW250
KBED 
18nm E 
220540Z 2206/2306 00000KT P6SM BKN250 FM221400 36005KT P6SM SCT250 FM221600 03006KT P6SM SCT250 FM222000 07005KT P6SM SCT250
NOTAMs
Click for the latest NOTAMs
NOTAMs are issued by the DoD/FAA and will open in a separate window not controlled by AirNav.

 

 
 

Would you like to see your business listed on this page?

 If your business provides an interesting product or service to pilots, flight crews, aircraft, or users of the Clinton Hospital Heliport, you should consider listing it here.  To start the listing process, click on the button below
 
Add a business
 

Other Pages about Clinton Hospital Heliport

Update a link
 
Copyright © AirNav, LLC. All rights reserved. Privacy Policy  Contact